• In Deutschland
  • Länderverzeichnis
  • Für 7 Tage
  • Wassertemperatur
  • Satellitenkarten
  • Wetterkarte
  • Widgets
  • user-avatar
    Anmelden

    Stündliche Wetter Appen

    Heute, 12 Dezember, Dienstag

    Zeit Temperatur Niederschläge Wind Luftdruck Luftfeuchtigkeit
    00:00 0°C° 0,9 mm 3 m/S 735 mmHg 98%
    01:00 +1°C° 0 mm 2 m/S 735 mmHg 98%
    02:00 +1°C° 0,4 mm 2 m/S 736 mmHg 98%
    03:00 0°C° 0,4 mm 3 m/S 736 mmHg 98%
    04:00 0°C° 0,4 mm 3 m/S 737 mmHg 98%
    05:00 0°C° 0,1 mm 3 m/S 738 mmHg 97%
    06:00 -1°C° 0,1 mm 4 m/S 739 mmHg 97%
    07:00 -1°C° 0,1 mm 4 m/S 740 mmHg 96%
    08:00 -1°C° 0,3 mm 5 m/S 741 mmHg 96%
    09:00 -1°C° 0,3 mm 5 m/S 742 mmHg 96%
    10:00 -1°C° 0,3 mm 5 m/S 743 mmHg 96%
    11:00 -1°C° 0,6 mm 5 m/S 745 mmHg 95%
    12:00 -1°C° 0,6 mm 4 m/S 746 mmHg 95%
    13:00 -1°C° 0,6 mm 4 m/S 748 mmHg 94%
    14:00 -1°C° 0,2 mm 4 m/S 749 mmHg 92%
    15:00 -1°C° 0,2 mm 4 m/S 750 mmHg 91%
    16:00 0°C° 0,2 mm 3 m/S 751 mmHg 89%
    17:00 0°C° 0 mm 3 m/S 752 mmHg 89%
    18:00 0°C° 0 mm 3 m/S 753 mmHg 89%
    19:00 0°C° 0 mm 3 m/S 754 mmHg 90%
    20:00 -1°C° 0 mm 4 m/S 754 mmHg 90%
    21:00 -2°C° 0 mm 4 m/S 755 mmHg 90%
    22:00 -2°C° 0 mm 4 m/S 755 mmHg 90%
    23:00 -2°C° 0 mm 5 m/S 755 mmHg 90%

    Morgen, 13 Dezember, Mittwoch

    Zeit Temperatur Niederschläge Wind Luftdruck Luftfeuchtigkeit
    00:00 -2°C° 0 mm 5 m/S 755 mmHg 90%
    01:00 -4°C° 0 mm 5 m/S 755 mmHg 90%
    02:00 -4°C° 0 mm 5 m/S 755 mmHg 91%
    03:00 -4°C° 0 mm 5 m/S 755 mmHg 91%
    04:00 -4°C° 0 mm 6 m/S 755 mmHg 92%
    05:00 -3°C° 0 mm 6 m/S 754 mmHg 91%
    06:00 -3°C° 0 mm 6 m/S 754 mmHg 90%
    07:00 -3°C° 0 mm 6 m/S 753 mmHg 89%
    08:00 -3°C° 0 mm 7 m/S 753 mmHg 88%
    09:00 -3°C° 0 mm 7 m/S 752 mmHg 87%
    10:00 -2°C° 0 mm 8 m/S 752 mmHg 87%
    11:00 -2°C° 0,4 mm 8 m/S 750 mmHg 88%
    12:00 -1°C° 0,4 mm 8 m/S 749 mmHg 89%
    13:00 -1°C° 0,4 mm 8 m/S 748 mmHg 90%
    14:00 -1°C° 1,1 mm 8 m/S 747 mmHg 92%
    15:00 0°C° 1,1 mm 7 m/S 746 mmHg 94%
    16:00 0°C° 1,1 mm 7 m/S 745 mmHg 96%
    17:00 0°C° 0,3 mm 7 m/S 745 mmHg 96%
    18:00 +1°C° 0,3 mm 6 m/S 744 mmHg 97%
    19:00 +1°C° 0,3 mm 6 m/S 744 mmHg 98%
    20:00 +1°C° 0,1 mm 6 m/S 742 mmHg 97%
    21:00 +1°C° 0,1 mm 6 m/S 741 mmHg 97%
    22:00 +1°C° 0,1 mm 6 m/S 739 mmHg 97%
    23:00 +2°C° 1,9 mm 7 m/S 739 mmHg 94%

    übermorgen, 14 Dezember, Donnerstag

    Zeit Temperatur Niederschläge Wind Luftdruck Luftfeuchtigkeit
    00:00 +1°C° 1,9 mm 8 m/S 738 mmHg 91%
    01:00 +2°C° 1,9 mm 10 m/S 737 mmHg 88%
    02:00 +1°C° 0,1 mm 9 m/S 737 mmHg 86%
    03:00 0°C° 0,1 mm 8 m/S 737 mmHg 85%
    04:00 +1°C° 0,1 mm 6 m/S 737 mmHg 83%
    05:00 +1°C° 0,7 mm 6 m/S 737 mmHg 85%
    06:00 -1°C° 0,7 mm 6 m/S 736 mmHg 86%
    07:00 0°C° 0,7 mm 5 m/S 736 mmHg 88%
    08:00 -1°C° 0,9 mm 6 m/S 737 mmHg 88%
    09:00 -1°C° 0,9 mm 7 m/S 737 mmHg 88%
    10:00 0°C° 0,9 mm 7 m/S 738 mmHg 87%
    11:00 0°C° 0,3 mm 7 m/S 738 mmHg 86%
    12:00 0°C° 0,3 mm 7 m/S 739 mmHg 84%
    13:00 0°C° 0,3 mm 7 m/S 740 mmHg 82%
    14:00 0°C° 0,1 mm 7 m/S 740 mmHg 82%
    15:00 -1°C° 0,1 mm 7 m/S 740 mmHg 83%
    16:00 -1°C° 0,1 mm 6 m/S 740 mmHg 84%
    17:00 -1°C° 0 mm 6 m/S 740 mmHg 85%
    18:00 0°C° 0 mm 5 m/S 739 mmHg 86%
    19:00 -1°C° 0 mm 5 m/S 739 mmHg 88%
    20:00 -1°C° 0 mm 5 m/S 739 mmHg 89%
    21:00 -1°C° 0 mm 5 m/S 739 mmHg 90%
    22:00 -1°C° 0 mm 4 m/S 739 mmHg 91%
    23:00 -1°C° 0 mm 4 m/S 739 mmHg 92%

    15 Dezember, Freitag

    Zeit Temperatur Niederschläge Wind Luftdruck Luftfeuchtigkeit
    00:00 -1°C° 0 mm 4 m/S 739 mmHg 92%
    01:00 -2°C° 0 mm 4 m/S 739 mmHg 92%
    02:00 -2°C° 0 mm 4 m/S 739 mmHg 92%
    03:00 -1°C° 0 mm 5 m/S 740 mmHg 91%
    04:00 -1°C° 0 mm 5 m/S 740 mmHg 90%
    05:00 -2°C° 0 mm 5 m/S 740 mmHg 91%
    06:00 -2°C° 0 mm 4 m/S 740 mmHg 91%
    07:00 -2°C° 0 mm 4 m/S 741 mmHg 92%
    08:00 -2°C° 0 mm 4 m/S 741 mmHg 92%
    09:00 -1°C° 0 mm 3 m/S 741 mmHg 92%
    10:00 -1°C° 0 mm 3 m/S 741 mmHg 92%
    11:00 -1°C° 0,1 mm 3 m/S 741 mmHg 92%
    12:00 +1°C° 0,1 mm 2 m/S 742 mmHg 92%
    13:00 +2°C° 0,1 mm 2 m/S 742 mmHg 92%
    14:00 +1°C° 0,1 mm 2 m/S 742 mmHg 93%
    15:00 +1°C° 0,1 mm 2 m/S 742 mmHg 93%
    16:00 +1°C° 0,1 mm 1 m/S 743 mmHg 94%
    17:00 -1°C° 0 mm 2 m/S 743 mmHg 94%
    18:00 -1°C° 0 mm 2 m/S 743 mmHg 93%
    19:00 -1°C° 0 mm 2 m/S 744 mmHg 93%
    20:00 -1°C° 0 mm 3 m/S 744 mmHg 93%
    21:00 -1°C° 0 mm 3 m/S 745 mmHg 93%
    22:00 -1°C° 0 mm 3 m/S 745 mmHg 92%
    23:00 0°C° 0 mm 3 m/S 746 mmHg 92%

    16 Dezember, Samstag

    Zeit Temperatur Niederschläge Wind Luftdruck Luftfeuchtigkeit
    00:00 -1°C° 0 mm 4 m/S 746 mmHg 92%
    01:00 0°C° 0 mm 4 m/S 746 mmHg 91%
    02:00 0°C° 0 mm 4 m/S 747 mmHg 90%
    03:00 0°C° 0 mm 4 m/S 747 mmHg 89%
    04:00 0°C° 0 mm 4 m/S 748 mmHg 87%
    05:00 0°C° 0,1 mm 4 m/S 748 mmHg 87%
    06:00 0°C° 0,1 mm 4 m/S 749 mmHg 87%
    07:00 0°C° 0,1 mm 4 m/S 749 mmHg 87%
    08:00 0°C° 0,1 mm 4 m/S 749 mmHg 86%
    09:00 0°C° 0,1 mm 4 m/S 750 mmHg 86%
    10:00 0°C° 0,1 mm 4 m/S 750 mmHg 85%
    11:00 0°C° 0,1 mm 5 m/S 750 mmHg 85%
    12:00 +1°C° 0,1 mm 5 m/S 750 mmHg 84%
    13:00 +1°C° 0,1 mm 5 m/S 751 mmHg 83%
    14:00 +1°C° 0,1 mm 5 m/S 751 mmHg 83%
    15:00 0°C° 0,1 mm 5 m/S 751 mmHg 83%
    16:00 0°C° 0,1 mm 5 m/S 751 mmHg 83%
    17:00 0°C° 0,2 mm 5 m/S 752 mmHg 83%
    18:00 0°C° 0,2 mm 5 m/S 752 mmHg 83%
    19:00 0°C° 0,2 mm 5 m/S 752 mmHg 84%
    20:00 0°C° 0,1 mm 5 m/S 753 mmHg 84%
    21:00 0°C° 0,1 mm 4 m/S 753 mmHg 85%
    22:00 -1°C° 0,1 mm 4 m/S 754 mmHg 85%
    23:00 -1°C° 0,1 mm 4 m/S 754 mmHg 86%

    17 Dezember, Sonntag

    Zeit Temperatur Niederschläge Wind Luftdruck Luftfeuchtigkeit
    00:00 -1°C° 0,1 mm 4 m/S 755 mmHg 87%
    01:00 -1°C° 0,1 mm 4 m/S 755 mmHg 87%
    02:00 0°C° 0 mm 3 m/S 755 mmHg 87%
    03:00 -1°C° 0 mm 3 m/S 756 mmHg 87%
    04:00 -1°C° 0 mm 3 m/S 756 mmHg 87%
    05:00 -1°C° 0,1 mm 3 m/S 757 mmHg 87%
    06:00 -1°C° 0,1 mm 3 m/S 757 mmHg 87%
    07:00 -1°C° 0,1 mm 3 m/S 758 mmHg 87%
    08:00 0°C° 0,1 mm 3 m/S 758 mmHg 87%
    09:00 0°C° 0,1 mm 3 m/S 759 mmHg 87%
    10:00 0°C° 0,1 mm 3 m/S 760 mmHg 87%
    11:00 +1°C° 0,1 mm 3 m/S 760 mmHg 86%
    12:00 +1°C° 0,1 mm 3 m/S 760 mmHg 86%
    13:00 +2°C° 0,1 mm 3 m/S 761 mmHg 85%
    14:00 +1°C° 0,1 mm 3 m/S 761 mmHg 86%
    15:00 +1°C° 0,1 mm 3 m/S 762 mmHg 86%
    16:00 +2°C° 0,1 mm 2 m/S 762 mmHg 87%
    17:00 +1°C° 0 mm 2 m/S 762 mmHg 87%
    18:00 +1°C° 0 mm 2 m/S 763 mmHg 88%
    19:00 +1°C° 0 mm 2 m/S 763 mmHg 89%
    20:00 -1°C° 0 mm 2 m/S 764 mmHg 89%
    21:00 -1°C° 0 mm 2 m/S 764 mmHg 90%
    22:00 -1°C° 0 mm 2 m/S 764 mmHg 90%
    23:00 -1°C° 0 mm 2 m/S 764 mmHg 91%
    Mehr zeigen